MST,Max TemperatureF,Mean TemperatureF,Min TemperatureF,Max Dew PointF,MeanDew PointF,Min DewpointF,Max Humidity, Mean Humidity, Min Humidity, Max Sea Level PressureIn, Mean Sea Level PressureIn, Min Sea Level PressureIn, Max VisibilityMiles, Mean VisibilityMiles, Min VisibilityMiles, Max Wind SpeedMPH, Mean Wind SpeedMPH, Max Gust SpeedMPH,PrecipitationIn, CloudCover, Events, WindDirDegrees
2013-1-1,27,25,23,21,20,17,96,85,74,30.58,30.49,30.34,10,9,5,8,2,12,T,8,Snow,176
2013-1-2,27,23,19,20,18,14,92,75,57,30.63,30.59,30.49,10,9,8,7,0,8,T,8,Snow,355
2013-1-3,25,15,5,15,10,4,100,84,68,30.56,30.47,30.33,10,8,1,6,1,7,0.00,5,,10
2013-1-4,24,17,9,21,17,10,96,87,77,30.45,30.38,30.26,10,8,1,6,0,6,0.03,8,Snow,190
2013-1-5,33,24,14,25,21,12,100,85,69,30.47,30.36,30.21,10,8,0,8,1,9,0.00,6,Fog,353
2013-1-6,35,31,26,29,25,21,92,74,56,30.19,30.07,29.97,10,9,2,17,6,21,0.01,8,Snow,187
2013-1-7,36,34,31,34,31,25,100,85,69,30.04,29.87,29.72,10,4,1,20,11,26,0.21,8,Rain-Snow,167
2013-1-8,38,32,26,33,28,19,96,75,54,30.09,29.96,29.81,10,6,1,17,8,60,0.05,7,Rain-Snow,179
2013-1-9,43,38,33,36,33,30,92,77,62,29.90,29.76,29.61,10,10,4,25,11,29,0.05,7,Rain,175
2013-1-10,36,30,24,33,24,9,96,73,50,29.95,29.77,29.66,10,8,0,26,13,32,0.05,8,Fog-Rain-Snow,42
2013-1-11,25,16,6,8,6,3,88,64,40,30.27,30.15,29.96,10,10,10,17,8,22,0.00,5,,27
2013-1-12,22,14,5,14,10,3,91,80,68,30.35,30.24,30.10,10,7,0,6,1,6,0.06,6,Fog-Snow,227
2013-1-13,19,12,4,14,9,3,96,82,67,30.46,30.39,30.24,10,10,6,6,1,8,T,8,,270
2013-1-14,21,19,17,17,15,14,92,85,77,30.45,30.32,30.20,10,6,0,14,4,110,0.07,8,Fog-Snow,172
2013-1-15,26,20,14,20,17,13,100,88,75,30.58,30.50,30.34,10,10,2,3,0,5,0.00,6,,0
2013-1-16,29,19,9,21,15,7,100,88,75,30.60,30.49,30.40,10,5,0,5,0,7,0.00,5,Fog,245
2013-1-17,29,19,9,23,16,7,100,88,75,30.60,30.40,30.22,9,1,0,7,1,8,T,6,Fog-Snow,212
2013-1-18,33,21,9,27,12,8,100,92,84,30.35,30.22,30.12,10,4,0,7,1,7,0.00,4,Fog,271
2013-1-19,33,20,6,23,13,5,100,83,66,30.47,30.39,30.25,10,10,6,7,0,,0.00,1,,-1
2013-1-20,33,19,5,21,15,4,100,82,63,30.53,30.45,30.30,10,10,6,6,1,9,0.00,0,,338
2013-1-21,38,23,8,25,18,9,100,80,59,30.39,30.31,30.14,10,9,3,6,0,6,0.00,0,,-1
2013-1-22,28,17,5,21,10,2,100,88,75,30.38,30.25,30.18,10,6,0,5,0,5,0.00,3,Fog,238
2013-1-23,27,19,11,25,19,9,96,86,75,30.27,30.10,29.90,10,7,1,6,0,6,0.09,4,Snow,352
2013-1-24,43,32,21,29,25,21,100,77,53,30.23,30.14,29.88,10,9,5,14,5,17,0.01,5,,235
2013-1-25,39,32,24,34,30,23,100,91,82,30.18,30.06,29.90,10,10,7,25,1,55,0.02,8,Rain,272
2013-1-26,38,33,27,36,33,24,100,85,70,29.94,29.86,29.80,10,7,2,10,2,18,0.19,8,Rain,216
2013-1-27,35,30,24,28,26,22,92,84,75,29.94,29.90,29.81,10,8,1,36,4,117,0.01,8,Snow,177
2013-1-28,33,26,19,28,24,19,100,85,69,29.92,29.84,29.72,10,9,2,17,6,23,T,7,Snow,171
2013-1-29,29,25,20,22,17,14,96,75,53,30.18,30.06,29.86,10,10,5,16,4,18,T,7,Snow,27
2013-1-30,38,31,23,30,26,18,85,78,70,30.14,30.08,29.98,10,10,8,7,2,22,T,8,Snow,194
2013-1-31,40,36,32,34,32,28,92,84,75,30.21,30.16,30.10,10,10,10,13,7,18,0.02,8,Rain,169